Satellite: NOAA-19
Catalog number: 33591
Epoch time:      09091.79509241
Element set:    0056
Inclination:      098.7403 deg
RA of node:       039.5692 deg
Eccentricity:    0.0015070
Arg of perigee:   099.1071 deg
Mean anomaly:     261.1816 deg
Mean motion:   14.10944944 rev/day
Decay rate:       -8.8e-07 rev/day^2
Epoch rev:           00766
Checksum:              315

/EX
SB KEPS @ AMSAT  $ORB09092.M
Orbital Elements  09092.MISC

HR AMSAT ORBITAL ELEMENTS FOR MANNED AND MISCELLANEOUS SATELLITES
FROM WA5QGD FORT WORTH,TX April 2, 2009
Send Subscribe/unsubscribe to KEPS at 
http://www.amsat.org/mailman/listinfo/keps
BID: ORB09092.M
TO ALL RADIO AMATEURS BT

Satellite: HUBBLE
Catalog number: 20580
Epoch time:      09091.76123720
Element set:    0360
Inclination:      028.4712 deg
RA of node:       240.9677 deg
Eccentricity:    0.0004013
Arg of perigee:   213.8753 deg
Mean anomaly:     146.1583 deg
Mean motion:   15.00469555 rev/day
Decay rate:       3.41e-06 rev/day^2
Epoch rev:           83836
Checksum:              280

Satellite: PO-34
Catalog number: 25520
Epoch time:      09091.95844739
Element set:    0220
Inclination:      028.4602 deg
RA of node:       045.3106 deg
Eccentricity:    0.0005706
Arg of perigee:   193.3697 deg
Mean anomaly:     166.6743 deg
Mean motion:   15.17316038 rev/day
Decay rate:       3.39e-06 rev/day^2
Epoch rev:           57706
Checksum:              308

Satellite: ISS
Catalog number: 25544
Epoch time:      09092.68379046
Element set:     597
Inclination:      051.6414 deg
RA of node:       333.8809 deg
Eccentricity:    0.0009471
Arg of perigee:   189.1482 deg
Mean anomaly:     170.9871 deg
Mean motion:   15.71872827 rev/day
Decay rate:      9.829e-05 rev/day^2
Epoch rev:           59407
Checksum:              355

Satellite: CO-58
Catalog number: 28895
Epoch time:      09091.70483501
Element set:     268
Inclination:      098.0700 deg
RA of node:       344.4262 deg
Eccentricity:    0.0017096
Arg of perigee:   224.8071 deg
Mean anomaly:     135.1745 deg
Mean motion:   14.59754033 rev/day
Decay rate:        1.1e-07 rev/day^2
Epoch rev:           18257
Checksum:              307

Satellite: FALCON
Catalog number: 30776
Epoch time:      09091.65245515
Element set:    0550
Inclination:      035.4335 deg
RA of node:       203.7469 deg
Eccentricity:    0.0002185
Arg of perigee:   332.4935 deg
Mean anomaly:     027.5667 deg
Mean motion:   15.03203713 rev/day
Decay rate:       4.00e-06 rev/day^2
Epoch rev:           11357
Checksum:              272

Satellite: MAST
Catalog number: 31126
Epoch time:      09091.69050556
Element set:     562
Inclination:      097.9960 deg
RA of node:       149.9697 deg
Eccentricity:    0.0095374
Arg of perigee:   156.7630 deg
Mean anomaly:     203.7929 deg
Mean motion:   14.53486640 rev/day
Decay rate:        6.1e-07 rev/day^2
Epoch rev:           10392
Checksum:              327

Satellite: CAPE1
Catalog number: 31130
Epoch time:      09091.86032212
Element set:     565
Inclination:      097.9976 deg
RA of node:       148.4852 deg
Eccentricity:    0.0103578
Arg of perigee:   161.1458 deg
Mean anomaly:     199.3601 deg
Mean motion:   14.52045024 rev/day
Decay rate:       1.27e-06 rev/day^2
Epoch rev:           10361
Checksum:              283

Satellite: COMPASS
Catalog number: 32787
Epoch time:      09092.66407009
Element set:     321
Inclination:      097.9506 deg
RA of node:       157.1039 deg
Eccentricity:    0.0014628
Arg of perigee:   278.9440 deg
Mean anomaly:     081.0116 deg
Mean motion:   14.81570638 rev/day
Decay rate:        9.0e-07 rev/day^2
Epoch rev:            5026
Checksum:              294

Satellite: AAUSAT2
Catalog number: 32788
Epoch time:      09091.82779098
Element set:    0323
Inclination:      097.9497 deg
RA of node:       156.3196 deg
Eccentricity:    0.0014358
Arg of perigee:   283.8086 deg
Mean anomaly:     076.1514 deg
Mean motion:   14.81692443 rev/day
Decay rate:       3.09e-06 rev/day^2
Epoch rev:           05014
Checksum:              336

Satellite: DO-64
Catalog number: 32789
Epoch time:      09091.84808604
Element set:     329
Inclination:      097.9527 deg
RA of node:       156.4570 deg
Eccentricity:    0.0014381
Arg of perigee:   279.7069 deg
Mean anomaly:     080.2503 deg
Mean motion:   14.81651420 rev/day
Decay rate:       1.12e-06 rev/day^2
Epoch rev:            5014
Checksum:              308

Satellite: CO-66
Catalog number: 32791
Epoch time:      09091.61766053
Element set:    0313
Inclination:      097.9521 deg
RA of node:       156.0964 deg
Eccentricity:    0.0015029
Arg of perigee:   281.4956 deg
Mean anomaly:     078.4584 deg
Mean motion:   14.81408279 rev/day
Decay rate:       4.79e-06 rev/day^2
Epoch rev:           05007
Checksum:              332

Satellite: RS-30
Catalog number: 32953
Epoch time:      09091.64407007
Element set:     269
Inclination:      082.5001 deg
RA of node:       304.2232 deg
Eccentricity:    0.0019284
Arg of perigee:   348.6497 deg
Mean anomaly:     011.4147 deg
Mean motion:   12.43000276 rev/day
Decay rate:        1.0e-07 rev/day^2
Epoch rev:            3888
Checksum:              268

/EX



_______________________________________________
Via the Keps mailing list courtesy of AMSAT-NA
http://amsat.org/mailman/listinfo/keps

--- ViaMAIL!/WC v1.60d
 * Origin: Chowdanet (401-724-4410) telnet://chowdanet.com  (1:323/120)